Powrót do katalogu

FENGYUN 1C DEB

AktywnySSO
NORAD 30245·DEBRIS·🇨🇳 China

Wystrzelony May 10, 1999 z Taiyuan Satellite Launch Center

Loading…

Następne Przeloty (najbliższe 24 godziny)

TLE

ŚwieżeSource: Space-Track

Epoka: Sep 14, 2026, 09:03 UTC

1 30245U 99025XE  26257.37734417  .00000698  00000-0  62542-3 0  9992
2 30245  98.9106 233.6329 0190353 232.4852 125.8868 13.79697206984946

Śledź FENGYUN 1C DEB w czasie rzeczywistym z AllMySat

Download on the App Store